Weather History for KSMF - October, 2012

Change the Weather History Date:

Friday, October 12, 2012

  Actual Average Record
Temperature  
Mean Temperature 58 °F -  
Max Temperature 64 °F 79 °F 97 °F (1991)
Min Temperature 48 °F 51 °F 39 °F (2002)
Degree Days  
Heating Degree Days 6    
Growing Degree Days 8 (Base 50)    
Moisture  
Dew Point 50 °F    
Average Humidity 76    
Maximum Humidity 89    
Minimum Humidity 60    
Precipitation  
Precipitation 0.00 in - - ()
Sea Level Pressure  
Sea Level Pressure 30.10 in    
Wind  
Wind Speed 4 mph (SSW)    
Max Wind Speed 9 mph    
Max Gust Speed -    
Visibility 10 miles    
Events      
Averages and records for this station are not official NWS values.
T = Trace of Precipitation, MM = Missing Value Source: NWS Daily Summary

Daily Weather History Graph

Daily Weather History Graph

Search for Another Location

Airport or City:

Trip Planner

Search our weather history database for the weather conditions in past years. The results will help you decide how hot, cold, wet, or windy it might be!

Date:

Astronomy

Oct. 12, 2012 Rise Set
Actual Time 7:13 AM PDT 6:31 PM PDT
Civil Twilight 6:46 AM PDT 6:58 PM PDT
Nautical Twilight 6:15 AM PDT 7:28 PM PDT
Astronomical Twilight 5:44 AM PDT 7:59 PM PDT
Moon 4:03 AM PDT (10/12) 4:42 PM PDT (10/12)
Length of Visible Light 12h 11m
Length of Day
11h 18m
Waning Crescent, 10% of the Moon is Illuminated
Oct 12
Waning Crescent
Oct 15
New
Oct 21
First Quarter
Oct 29
Full
Nov 6
Last Quarter

Hourly Weather History & Observations

Time (PDT) Temp. Dew Point Humidity Pressure Visibility Wind Dir Wind Speed Gust Speed Precip Events Conditions
12:53 AM 55.4 °F 50.0 °F 82% 29.95 in 10.0 mi South 5.8 mph - N/A   Clear
1:53 AM 55.0 °F 51.1 °F 86% 29.95 in 10.0 mi South 8.1 mph - N/A   Scattered Clouds
2:53 AM 55.9 °F 51.1 °F 84% 29.97 in 10.0 mi SSE 4.6 mph - N/A   Clear
3:53 AM 55.9 °F 51.1 °F 84% 29.96 in 10.0 mi South 6.9 mph - 0.00 in   Scattered Clouds
4:53 AM 55.0 °F 51.1 °F 86% 29.99 in 10.0 mi SSW 5.8 mph - N/A   Partly Cloudy
5:53 AM 55.0 °F 51.1 °F 86% 30.00 in 10.0 mi Calm Calm - N/A   Mostly Cloudy
6:53 AM 54.0 °F 50.0 °F 86% 30.01 in 10.0 mi Calm Calm - N/A   Scattered Clouds
7:53 AM 53.1 °F 50.0 °F 89% 30.04 in 10.0 mi Calm Calm - N/A   Partly Cloudy
8:53 AM 54.0 °F 50.0 °F 86% 30.07 in 10.0 mi SW 3.5 mph - N/A   Partly Cloudy
9:53 AM 55.4 °F 51.8 °F 88% 30.09 in 10.0 mi SSW 4.6 mph - N/A   Scattered Clouds
10:53 AM 60.1 °F 51.1 °F 72% 30.11 in 10.0 mi Calm Calm - N/A   Mostly Cloudy
11:33 AM 60.8 °F 50.0 °F 68% 30.11 in 10.0 mi Variable 3.5 mph - N/A   Mostly Cloudy
11:53 AM 61.0 °F 50.0 °F 67% 30.12 in 10.0 mi SW 6.9 mph - N/A   Overcast
12:28 PM 60.8 °F 48.2 °F 63% 30.13 in 10.0 mi SW 3.5 mph - N/A   Overcast
12:53 PM 61.0 °F 48.9 °F 64% 30.13 in 10.0 mi SSW 5.8 mph - N/A   Overcast
1:53 PM 62.1 °F 50.0 °F 65% 30.14 in 10.0 mi Calm Calm - N/A   Overcast
2:53 PM 62.6 °F 50.0 °F 63% 30.14 in 10.0 mi South 5.8 mph - N/A   Overcast
3:53 PM 64.0 °F 50.0 °F 60% 30.14 in 10.0 mi South 5.8 mph - N/A   Overcast
4:53 PM 63.0 °F 48.9 °F 60% 30.15 in 10.0 mi South 9.2 mph - N/A   Mostly Cloudy
5:53 PM 63.0 °F 48.9 °F 60% 30.16 in 10.0 mi SSW 8.1 mph - N/A   Mostly Cloudy
6:53 PM 60.8 °F 48.2 °F 63% 30.18 in 10.0 mi South 4.6 mph - N/A   Partly Cloudy
7:53 PM 57.9 °F 48.9 °F 72% 30.19 in 10.0 mi Calm Calm - N/A   Clear
8:53 PM 55.9 °F 48.0 °F 75% 30.20 in 10.0 mi Calm Calm - N/A   Clear
9:53 PM 53.1 °F 48.0 °F 83% 30.21 in 10.0 mi Calm Calm - N/A   Clear
10:53 PM 53.1 °F 48.9 °F 86% 30.21 in 10.0 mi Calm Calm - N/A   Clear
11:53 PM 48.9 °F 45.0 °F 86% 30.22 in 10.0 mi Calm Calm - N/A   Clear